This is the latest recevied weather packets stored in our database for station/object IN3XSV. If no packets are shown the sender has not sent any weather packets the latest 10 day(s).
| Time | Temp. | Humidity | Pressure | Rain* | Wind** | Luminosity | Snow |
|---|---|---|---|---|---|---|---|
| 1777893824 | 22.22° C | 45% | 1009.5 hPa | 0 mm | - | - | - |
| 1777893524 | 22.22° C | 45% | 1009.6 hPa | 0 mm | - | - | - |
| 1777893224 | 21.67° C | 44% | 1009.6 hPa | 0 mm | - | - | - |
| 1777892924 | 21.67° C | 46% | 1009.6 hPa | 0 mm | - | - | - |
| 1777892624 | 21.67° C | 46% | 1009.6 hPa | 0 mm | - | - | - |
| 1777892434 | 21.67° C | 45% | 1009.7 hPa | 0 mm | - | - | - |
| 1777892356 | 21.67° C | 45% | 1009.7 hPa | 0 mm | - | - | - |
| 1777892324 | 21.67° C | 45% | 1009.7 hPa | 0 mm | - | - | - |
| 1777892024 | 21.67° C | 46% | 1009.7 hPa | 0 mm | - | - | - |
| 1777891724 | 21.11° C | 47% | 1009.8 hPa | 0 mm | - | - | - |
| 1777891424 | 21.11° C | 45% | 1009.8 hPa | 0 mm | - | - | - |
| 1777891124 | 21.11° C | 48% | 1009.9 hPa | 0 mm | - | - | - |
| 1777890824 | 21.11° C | 46% | 1009.9 hPa | 0 mm | - | - | - |
| 1777890524 | 21.11° C | 47% | 1010 hPa | 0 mm | - | - | - |
| 1777890224 | 20.56° C | 48% | 1010 hPa | 0 mm | - | - | - |
| 1777889924 | 20.56° C | 48% | 1010.1 hPa | 0 mm | - | - | - |
| 1777889624 | 20.56° C | 49% | 1010.1 hPa | 0 mm | - | - | - |
| 1777889324 | 20° C | 48% | 1010.3 hPa | 0 mm | - | - | - |
| 1777889024 | 20.56° C | 49% | 1010.4 hPa | 0 mm | - | - | - |
| 1777888724 | 20° C | 49% | 1010.4 hPa | 0 mm | - | - | - |
| 1777888424 | 20° C | 50% | 1010.4 hPa | 0 mm | - | - | - |
| 1777888124 | 20° C | 51% | 1010.5 hPa | 0 mm | - | - | - |
| 1777887824 | 20° C | 51% | 1010.5 hPa | 0 mm | - | - | - |
| 1777887524 | 19.44° C | 52% | 1010.6 hPa | 0 mm | - | - | - |
| 1777887224 | 19.44° C | 52% | 1010.6 hPa | 0 mm | - | - | - |
* Rain latest hour (hover to see other rain measurements)
** Current wind speed in m/s (hover to see current wind gust speed)